Find Starlink 33803

NORAD ID: 63517 Int'l Des: 2025-071 Owner: SPXS Country: US Constellation: starlink operational
LEOCIRCULAR

当前视图

正在加载3D地球...

About Starlink 33803

Starlink 33803 (NORAD 63517) is a starlink constellation satellite (v2 mini) launched Apr 7, 2025 by SPXS of US. It operates in LEO, CIRCULAR orbit with a mass of 575.00 kg.

即将过境

Passes for default location (London). Set your location on the main map for personalized predictions.

高度历史

Loading altitude history...

两行轨道根数

1 63517U 25071AA 26263.46478226 .00019211 00000-0 57803-3 0 9995
2 63517 53.1621 313.5531 0000935 88.1100 272.0010 15.34411670 82619
Epoch: Sep 20, 2026 • Age: 24 hours

当前状态

高度 466.1 km
远地点 / 近地点 N/A
速度 7.63 km/s
星下点 -12.81°S, 33.58°W
发射日期 Apr 7, 2025
运行时间 1.4 years
类型 internet

技术详情

分类 Payload
质量 575.00 kg
干质量 530.00 kg
长度 0.30 m
跨度 29.00 m
形状 ? Box + pan
制造商 SPXS
平台类型 Starlink V2MO
阶段状态 In Orbit
所有者/国家 SPXS/US

Most Searched